Location: Stamford Observatory
(41.1241°N, 73.5498°W)
Time: 15:49:19
(UTC-04:00)

Daily predictions for brighter satellites

Satellite Brightness Start Highest point End
(mag) Time Altitude Azimuth Time Altitude Azimuth Time Altitude Azimuth
Cosmos 2369 Rocket 2.8 20:51:42 10° NNW 20:57:08 45° ENE 21:02:29 10° SE
Cosmos 1666 3.7 20:57:48 10° NNW 21:01:34 49° W 21:05:20 10° SSW
COSMOS 2455 2.9 20:56:09 10° SSW 21:02:10 89° WNW 21:08:13 10° NNE
ERS-1 Rocket 3.0 20:59:18 10° SSE 21:04:19 90° E 21:09:22 10° NNW
BREEZE-M DEB (TANK) 3.3 21:09:34 10° WNW 21:11:47 27° SW 21:13:40 10° SSE
YAOGAN 6 4.3 21:09:24 11° ESE 21:12:07 21° ENE 21:14:59 10° NNE
GRACE-1 3.9 21:11:49 10° N 21:14:42 87° E 21:17:33 10° S
SJ-11-01 4.4 21:10:19 10° S 21:14:58 78° WSW 21:19:41 10° NNW
GRACE-2 3.9 21:12:15 10° N 21:15:08 87° ESE 21:17:59 10° S
Envisat 3.0 21:17:21 10° SSE 21:22:24 72° ENE 21:27:29 10° N
GEOS 3 Rocket 3.8 21:18:19 10° SSE 21:23:32 70° WSW 21:28:46 10° NW
Cosmos 1758 Rocket 4.4 21:20:06 12° SSE 21:23:34 31° E 21:27:24 10° NNE
Cosmos 407 Rocket 3.7 21:20:10 10° S 21:25:13 50° ESE 21:30:16 10° NNE
Cosmos 2263 4.4 21:27:05 10° NNW 21:32:40 62° ENE 21:37:05 17° SE
Cosmos 1515 3.9 21:30:02 10° SSW 21:33:53 76° W 21:37:45 10° N
CZ-2C R/B 3.3 21:32:49 10° SW 21:34:18 16° W 21:35:48 10° NW
MetOp-A 4.2 21:31:35 14° SSE 21:36:13 65° ENE 21:41:32 10° N
SL-27 R/B 3.7 21:36:56 20° ESE 21:37:35 21° E 21:40:12 10° NE
UNK 4.3 21:33:19 10° NNE 21:38:48 65° ESE 21:44:34 10° S
Cosmos 1825 Rocket 3.5 21:34:34 10° S 21:39:00 81° E 21:43:27 10° N
Cosmos 1066 Rocket 4.2 21:36:15 10° S 21:41:57 80° E 21:47:48 10° NNE
COSMOS 2406 4.2 21:39:25 16° SSE 21:42:42 28° ESE 21:47:27 10° NE
Cosmos 1954 Rocket 4.4 21:41:49 11° S 21:46:41 45° ESE 21:51:44 10° NNE
Cosmos 1943 Rocket 2.7 21:41:26 10° NNW 21:46:45 44° ENE 21:50:21 20° SE
Lacrosse 4 Rocket 1.6 21:44:18 10° SW 21:48:19 69° WNW 21:52:25 10° NNE
Cosmos 2084 4.1 21:50:40 10° NNW 21:54:39 44° NE 21:56:59 23° ESE
Atlas Centaur 2 3.6 21:49:24 10° WSW 21:55:46 35° S 22:00:12 21° SE
SeaSat 1 2.4 21:52:49 21° SSE 21:56:07 81° ENE 22:01:05 10° NNW
Meteor 1-22 Rocket 4.3 21:52:03 10° N 21:57:45 88° E 22:02:15 18° S
H-2A R/B 3.9 21:54:45 10° SSW 21:58:24 27° W 22:02:10 10° NW
Cosmos 1943 3.9 21:52:52 10° SW 21:58:26 56° WNW 22:04:03 10° NNE
ISS -0.4 21:56:52 10° WNW 21:59:21 19° NNW 22:01:50 10° NNE
CZ-4C R/B 4.1 22:00:19 26° ESE 22:02:02 39° ENE 22:05:45 10° N
SL-23 DEB 4.3 22:00:51 10° SW 22:07:38 88° SE 22:11:34 10° NE
CZ-4B R/B 3.7 22:08:29 10° N 22:13:38 76° WNW 22:18:51 10° SSW
CZ-4 R/B 3.9 22:09:32 10° NNE 22:14:34 78° ESE 22:18:13 19° S
Cosmos 1953 2.7 22:12:13 10° N 22:16:04 46° E 22:17:07 36° ESE
Nadezhda 4 Rocket 4.5 22:13:52 26° SE 22:16:58 44° E 22:22:55 10° NNE
PSLV R/B 3.3 22:17:03 10° W 22:20:35 69° SSW 22:21:15 53° SE
Terra 2.5 22:19:03 29° ESE 22:20:48 40° ENE 22:25:15 10° N
ARGOS 3.1 22:18:01 26° SSE 22:21:10 88° W 22:26:38 10° NNW
ATLAS 3B R/B 3.6 22:15:56 10° SW 22:23:30 58° NW 22:30:53 10° NNE
Cosmos 1346 Rocket 4.2 22:20:13 10° SW 22:23:50 36° WNW 22:27:31 10° N
SPOT 5 4.2 22:21:02 12° SSW 22:24:28 29° W 22:28:14 10° NW
USA 245 4.3 22:21:15 21° S 22:24:59 64° WSW 22:29:46 10° NNW
Cosmos-2242 3.0 22:22:02 10° N 22:26:27 78° E 22:28:01 39° SSE
Cosmos 1850 Rocket 4.2 22:24:44 32° SSE 22:26:51 51° ESE 22:31:54 10° NNE
Cosmos 1842 3.2 22:25:38 33° SSW 22:27:19 83° W 22:31:15 10° N
Cosmos 1140 Rocket 3.4 22:26:31 24° S 22:29:40 72° ESE 22:34:54 10° NNE
Cosmos 1570 Rocket 4.1 22:26:51 10° NNW 22:32:13 66° ENE 22:34:19 37° SE
H-2A R/B 2.1 22:33:42 37° SE 22:35:31 62° ENE 22:40:34 10° N
NOSS 3-2 (A) 4.0 22:35:29 32° SE 22:36:34 35° ESE 22:42:21 10° NE
Lacrosse 5 4.4 22:35:05 10° NNW 22:38:15 16° NNE 22:41:23 10° NE
Cosmos 1607 3.8 22:32:57 12° SSW 22:38:45 71° ESE 22:44:57 10° NE
SL-8 R/B 3.9 22:34:09 10° WNW 22:38:59 69° NNE 22:41:05 33° E
USA 234 3.2 22:37:09 29° SE 22:40:48 84° NE 22:47:25 10° NW
Cosmos 2369 Rocket 3.8 22:36:18 10° NW 22:40:51 26° WSW 22:44:34 13° SSW
SPOT 1/Viking Rocket 4.5 22:41:54 21° SSW 22:44:54 41° W 22:49:46 10° NNW
Cosmos 2279 Rocket 4.4 22:40:14 10° NNW 22:46:21 58° W 22:50:14 23° SSW
Cosmos 614 Rocket 3.9 22:48:02 41° S 22:49:44 68° ESE 22:54:56 10° NNE
SL-08 RB Rocket 4.4 22:51:27 31° SSW 22:53:09 46° W 22:57:31 10° NNW
SAR-Lupe-2 3.6 22:58:16 68° WSW 22:58:22 68° WSW 23:01:57 10° NNW
Spot 2 4.3 22:54:03 10° NNE 22:58:59 84° ESE 23:00:35 45° S
Cosmos 1340 3.2 23:00:50 47° ENE 23:00:50 47° ENE 23:04:02 10° NNE
Meteor 2-5 Rocket 4.0 23:00:28 44° SE 23:01:54 55° E 23:07:30 10° NNE
Cosmos 1544 3.1 22:58:16 10° N 23:01:55 72° ENE 23:01:55 72° ENE
CARTOSAT-1 3.6 23:02:00 55° SSW 23:02:47 70° WSW 23:07:07 10° NNW
CZ-4C R/B 2.3 23:03:36 47° SE 23:04:02 49° ESE 23:09:39 10° NE
Cosmos 1758 4.1 23:00:49 10° NNW 23:04:45 45° W 23:05:36 39° SW
Okean 3 Rocket 3.6 23:08:05 60° ESE 23:08:11 60° E 23:12:33 10° NNE
USA 238 DEB 4.2 23:04:01 10° SW 23:11:01 61° NW 23:18:02 10° NNE
USA 238 4.2 23:04:07 10° SW 23:11:07 62° NW 23:18:08 10° NNE
DMSP B5D2-2 4.2 23:10:52 10° N 23:16:08 72° WNW 23:18:08 38° SSW
Cosmos 1470 2.8 23:15:41 10° N 23:19:20 77° N 23:19:20 77° N
Cosmos 1805 4.5 23:16:26 10° NNW 23:19:59 33° W 23:20:29 32° WSW
IGS 5A 3.9 23:19:53 49° WSW 23:20:13 50° W 23:24:17 10° NNW
COSMOS 2487 3.2 23:24:51 50° WNW 23:24:51 50° WNW 23:28:17 10° N
COSMOS 2406 4.3 23:21:23 10° SW 23:26:46 43° WNW 23:32:14 10° NNE
CENTAUR R/B 4.4 23:29:35 14° E 23:29:35 14° E 23:31:46 10° ENE
Cosmos 1943 Rocket 3.6 23:25:44 10° NW 23:30:12 25° WSW 23:31:53 22° SW
ALOS 2 4.1 23:32:11 24° ENE 23:32:25 24° ENE 23:35:57 10° NNE
Cosmos 1818 3.9 23:27:52 10° NNW 23:33:17 58° NE 23:34:29 47° E
Cosmos 2082 Rocket 3.5 23:34:49 25° E 23:34:49 25° E 23:38:44 10° NE
Cosmos 1833 Rocket 4.3 23:35:46 19° E 23:35:46 19° E 23:38:53 10° NE
ISS -0.1 23:35:05 10° NNW 23:36:45 13° N 23:38:25 10° NNE
CZ-4B R/B 3.7 23:37:33 20° ENE 23:37:33 20° ENE 23:39:49 10° NNE
Cosmos 1656 Rocket 4.2 23:31:47 10° NW 23:37:13 48° WSW 23:38:15 43° SW
NOSS 3-3 (A) 4.4 23:29:57 10° NNW 23:37:26 80° NE 23:40:25 42° SE
NOSS 3-3 (C) 4.5 23:30:04 10° NNW 23:37:32 79° NE 23:40:33 42° SE
Cosmos 1417 Rocket 4.4 23:35:48 10° N 23:41:55 70° E 23:43:09 56° SE
H-2A R/B 4.1 23:39:41 10° NE 23:41:37 22° ENE 23:41:37 22° ENE
Atlas Centaur 2 4.2 23:38:44 10° WSW 23:42:50 22° SW 23:42:50 22° SW
NOSS 3-2 (C) 3.4 23:43:08 47° SSW 23:45:07 86° ESE 23:51:48 10° NE
Cosmos 1553 Rocket 4.3 23:40:15 10° N 23:46:32 58° E 23:47:54 48° SE
Cosmos 1707 3.5 23:50:19 48° WNW 23:50:19 48° WNW 23:53:49 10° N
Cosmos 1378 4.4 23:56:29 38° NNE 23:56:29 38° NNE 23:59:01 10° NNE
Cosmos 1076 Rocket 3.7 23:56:04 66° NNE 23:56:04 66° NNE 23:59:44 10° N
